WXM80 ListenWXM80 Stop

You find our weather info also at:

UK Metoffice

WeatherCloud

Weather Underground

Northeastern Weather Network

AWEKAS

Citizen Weather Observer Program (CWOP)

HAMweather, WeatherForYou, PWS Weather


Weather Underground History page Text

Daily Summary for February 1, 2018 Units:  English    Metric   Both
« Previous Day
Next Day »
Daily Weekly Monthly Yearly Custom
  High: Low: Average:
Temperature: 43.4 °F 32.2 °F 37.9 °F
Dew Point: 36.1 °F 23.0 °F 30.2 °F
Humidity: 93 % 62 % 74 %
Wind Speed: 8.1 mph 0.0 mph 2.1 mph
Wind Gust: 13.8 mph - -
Wind:- - SSW
Pressure: 29.83 in 29.59 in -
Precipitation: 0.00 in    
Historical Graphs
 
 
Tabular Data for February 1, 2018
Time Temperature Dew Point Pressure Wind Wind Speed Wind Gust Humidity Rainfall Rate (Hourly)
00:02 32.4 °F 23.7 °F 29.82 in SSW 6.5 mph 8.1 mph 70 % 0.00 in
00:07 32.4 °F 23.7 °F 29.82 in SW 5.6 mph 8.1 mph 70 % 0.00 in
00:12 32.4 °F 23.7 °F 29.82 in SSW 5.5 mph 10.4 mph 70 % 0.00 in
00:17 32.4 °F 23.4 °F 29.82 in SW 8.1 mph 13.8 mph 69 % 0.00 in
00:22 32.4 °F 23.4 °F 29.82 in SW 6.9 mph 10.0 mph 69 % 0.00 in
00:27 32.4 °F 23.0 °F 29.83 in WSW 5.7 mph 8.1 mph 68 % 0.00 in
00:32 32.4 °F 23.0 °F 29.82 in SW 2.3 mph 4.0 mph 68 % 0.00 in
00:37 32.4 °F 23.0 °F 29.83 in SW 5.4 mph 11.5 mph 68 % 0.00 in
00:43 32.4 °F 23.0 °F 29.83 in SSW 3.7 mph 9.0 mph 68 % 0.00 in
00:48 32.4 °F 23.4 °F 29.82 in WSW 3.5 mph 6.9 mph 69 % 0.00 in
00:53 32.4 °F 23.4 °F 29.82 in WSW 2.3 mph 3.5 mph 69 % 0.00 in
00:58 32.4 °F 23.4 °F 29.82 in SW 3.9 mph 6.9 mph 69 % 0.00 in
01:03 32.4 °F 23.4 °F 29.81 in SW 1.2 mph 5.8 mph 69 % 0.00 in
01:08 32.3 °F 23.3 °F 29.81 in SSW 4.7 mph 6.9 mph 69 % 0.00 in
01:09 32.3 °F 23.3 °F 29.81 in SW 1.9 mph 4.0 mph 69 % 0.00 in
01:14 32.3 °F 23.3 °F 29.81 in SW 5.7 mph 6.9 mph 69 % 0.00 in
01:19 32.3 °F 23.3 °F 29.81 in South 3.7 mph 6.9 mph 69 % 0.00 in
01:25 32.3 °F 23.6 °F 29.81 in WSW 5.2 mph 8.1 mph 70 % 0.00 in
01:30 32.2 °F 23.5 °F 29.80 in WSW 3.1 mph 6.9 mph 70 % 0.00 in
01:35 32.2 °F 23.5 °F 29.80 in SSW 3.0 mph 7.0 mph 70 % 0.00 in
01:40 32.2 °F 23.5 °F 29.80 in SW 3.7 mph 6.9 mph 70 % 0.00 in
01:45 32.2 °F 23.8 °F 29.80 in SW 3.6 mph 6.9 mph 71 % 0.00 in
01:50 32.2 °F 23.8 °F 29.80 in SW 2.5 mph 4.6 mph 71 % 0.00 in
01:55 32.2 °F 23.8 °F 29.80 in SSW 3.3 mph 5.0 mph 71 % 0.00 in
02:00 32.2 °F 23.8 °F 29.79 in SSW 4.7 mph 8.0 mph 71 % 0.00 in
02:05 32.3 °F 24.3 °F 29.80 in SW 3.9 mph 5.0 mph 72 % 0.00 in
02:10 32.3 °F 24.3 °F 29.80 in SW 1.2 mph 3.5 mph 72 % 0.00 in
02:15 32.3 °F 24.3 °F 29.80 in SW 2.6 mph 4.6 mph 72 % 0.00 in
02:20 32.4 °F 24.7 °F 29.80 in SSW 3.5 mph 5.0 mph 73 % 0.00 in
02:25 32.5 °F 24.8 °F 29.79 in SSW 3.4 mph 8.1 mph 73 % 0.00 in
02:30 32.5 °F 24.8 °F 29.79 in SW 4.9 mph 7.0 mph 73 % 0.00 in
02:35 32.6 °F 24.9 °F 29.78 in SSW 2.9 mph 5.0 mph 73 % 0.00 in
02:40 32.6 °F 24.9 °F 29.78 in SSW 5.6 mph 6.9 mph 73 % 0.00 in
02:46 32.7 °F 25.0 °F 29.78 in WSW 5.7 mph 5.8 mph 73 % 0.00 in
02:51 32.8 °F 25.1 °F 29.78 in SSW 3.0 mph 12.0 mph 73 % 0.00 in
02:56 32.9 °F 25.2 °F 29.78 in SW 2.0 mph 9.0 mph 73 % 0.00 in
03:00 32.9 °F 25.5 °F 29.79 in SW 3.5 mph 8.1 mph 74 % 0.00 in
03:05 32.9 °F 25.5 °F 29.78 in SW 1.7 mph 5.8 mph 74 % 0.00 in
03:10 32.9 °F 25.5 °F 29.79 in SSW 1.5 mph 4.6 mph 74 % 0.00 in
03:15 32.9 °F 25.5 °F 29.79 in SW 3.1 mph 4.6 mph 74 % 0.00 in
03:20 33.0 °F 25.6 °F 29.79 in SW 4.0 mph 6.0 mph 74 % 0.00 in
03:25 33.0 °F 25.6 °F 29.78 in SW 3.9 mph 6.9 mph 74 % 0.00 in
03:31 33.0 °F 25.9 °F 29.78 in SSW 5.0 mph 8.0 mph 75 % 0.00 in
03:36 33.0 °F 25.9 °F 29.78 in SW 3.5 mph 8.1 mph 75 % 0.00 in
03:41 33.1 °F 26.0 °F 29.78 in SSW 6.2 mph 9.2 mph 75 % 0.00 in
03:46 33.2 °F 26.1 °F 29.78 in WSW 1.5 mph 5.0 mph 75 % 0.00 in
03:51 33.2 °F 26.1 °F 29.78 in SSW 2.1 mph 6.9 mph 75 % 0.00 in
03:56 33.2 °F 26.1 °F 29.77 in SW 4.4 mph 8.1 mph 75 % 0.00 in
04:01 33.3 °F 26.2 °F 29.77 in SSW 3.7 mph 5.8 mph 75 % 0.00 in
04:06 33.3 °F 26.2 °F 29.77 in SSW 2.2 mph 5.8 mph 75 % 0.00 in
04:11 33.3 °F 26.2 °F 29.77 in SW 4.5 mph 8.1 mph 75 % 0.00 in
04:16 33.4 °F 26.3 °F 29.77 in Calm   1.2 mph 75 % 0.00 in
04:21 33.4 °F 26.3 °F 29.77 in SW 3.8 mph 6.9 mph 75 % 0.00 in
04:27 33.5 °F 26.4 °F 29.77 in SW 2.5 mph 4.6 mph 75 % 0.00 in
04:32 33.6 °F 26.5 °F 29.76 in SW 2.6 mph 4.6 mph 75 % 0.00 in
04:37 33.7 °F 26.6 °F 29.76 in South 4.2 mph 7.0 mph 75 % 0.00 in
04:42 33.7 °F 26.6 °F 29.76 in SW 1.0 mph 5.8 mph 75 % 0.00 in
04:47 33.8 °F 26.7 °F 29.76 in SW 3.0 mph 4.6 mph 75 % 0.00 in
04:52 33.8 °F 26.7 °F 29.76 in SSW 2.3 mph 4.6 mph 75 % 0.00 in
04:57 33.9 °F 26.8 °F 29.76 in SSW 1.9 mph 6.0 mph 75 % 0.00 in
05:02 33.9 °F 26.8 °F 29.76 in SW 0.2 mph 2.3 mph 75 % 0.00 in
05:07 34.0 °F 26.9 °F 29.76 in SW 0.7 mph 3.5 mph 75 % 0.00 in
05:12 34.0 °F 26.9 °F 29.76 in WSW 3.1 mph 4.0 mph 75 % 0.00 in
05:17 34.0 °F 26.9 °F 29.75 in SSW 4.0 mph 5.8 mph 75 % 0.00 in
05:22 34.0 °F 26.9 °F 29.75 in SSW 4.2 mph 8.0 mph 75 % 0.00 in
05:28 34.1 °F 26.7 °F 29.76 in WSW 2.3 mph 3.5 mph 74 % 0.00 in
05:33 34.1 °F 26.7 °F 29.75 in SW 2.8 mph 6.9 mph 74 % 0.00 in
05:38 34.2 °F 27.1 °F 29.75 in SW 3.1 mph 6.9 mph 75 % 0.00 in
05:43 34.2 °F 27.1 °F 29.76 in SW 3.5 mph 8.1 mph 75 % 0.00 in
05:48 34.2 °F 27.1 °F 29.76 in SW 2.4 mph 3.5 mph 75 % 0.00 in
05:53 34.3 °F 27.2 °F 29.75 in SW 1.0 mph 3.5 mph 75 % 0.00 in
05:58 34.3 °F 27.2 °F 29.76 in SSW 2.6 mph 3.5 mph 75 % 0.00 in
06:03 34.4 °F 27.3 °F 29.75 in SW 3.1 mph 4.0 mph 75 % 0.00 in
06:08 34.4 °F 27.3 °F 29.76 in SSW 2.0 mph 2.3 mph 75 % 0.00 in
06:13 34.4 °F 27.3 °F 29.76 in WSW 3.2 mph 4.6 mph 75 % 0.00 in
06:18 34.4 °F 27.3 °F 29.76 in WSW 1.3 mph 2.0 mph 75 % 0.00 in
06:24 34.4 °F 27.3 °F 29.76 in WSW 2.4 mph 4.6 mph 75 % 0.00 in
06:29 34.4 °F 27.3 °F 29.76 in SW 0.6 mph 3.5 mph 75 % 0.00 in
06:34 34.5 °F 27.1 °F 29.76 in SSW 2.8 mph 3.5 mph 74 % 0.00 in
06:39 34.6 °F 27.5 °F 29.76 in SSW 1.8 mph 4.0 mph 75 % 0.00 in
06:44 34.6 °F 27.2 °F 29.76 in SSW 1.8 mph 4.0 mph 74 % 0.00 in
06:49 34.6 °F 27.2 °F 29.76 in South 1.9 mph 4.6 mph 74 % 0.00 in
06:54 34.7 °F 27.6 °F 29.75 in SSW 2.9 mph 4.6 mph 75 % 0.00 in
06:59 34.7 °F 27.6 °F 29.75 in SSW 3.1 mph 4.0 mph 75 % 0.00 in
07:04 34.7 °F 27.6 °F 29.75 in SSW 1.6 mph 4.0 mph 75 % 0.00 in
07:09 34.7 °F 27.6 °F 29.75 in SW 3.4 mph 5.8 mph 75 % 0.00 in
07:14 34.8 °F 27.7 °F 29.75 in SW 1.7 mph 4.0 mph 75 % 0.00 in
07:19 34.8 °F 27.7 °F 29.75 in SSW 3.3 mph 5.8 mph 75 % 0.00 in
07:24 34.8 °F 27.7 °F 29.75 in South 2.9 mph 3.5 mph 75 % 0.00 in
07:29 34.9 °F 27.8 °F 29.75 in SW 4.0 mph 8.1 mph 75 % 0.00 in
07:34 34.9 °F 27.8 °F 29.74 in SSW 2.7 mph 5.8 mph 75 % 0.00 in
07:40 35.1 °F 28.0 °F 29.74 in SSW 2.3 mph 5.8 mph 75 % 0.00 in
07:45 35.2 °F 28.1 °F 29.74 in South 1.2 mph 4.6 mph 75 % 0.00 in
07:50 35.3 °F 28.2 °F 29.74 in SW 2.2 mph 3.5 mph 75 % 0.00 in
07:55 35.4 °F 28.3 °F 29.74 in SSW 3.4 mph 6.0 mph 75 % 0.00 in
08:00 35.5 °F 28.4 °F 29.74 in SW 1.8 mph 4.6 mph 75 % 0.00 in
08:05 35.6 °F 28.1 °F 29.74 in SSW 4.0 mph 6.0 mph 74 % 0.00 in
08:10 35.8 °F 28.3 °F 29.74 in South 2.3 mph 6.9 mph 74 % 0.00 in
08:15 35.9 °F 28.4 °F 29.74 in SSW 2.5 mph 5.8 mph 74 % 0.00 in
08:20 36.0 °F 28.5 °F 29.74 in SSW 4.7 mph 6.9 mph 74 % 0.00 in
08:25 36.2 °F 28.4 °F 29.74 in South 5.7 mph 9.2 mph 73 % 0.00 in
08:30 36.4 °F 28.6 °F 29.73 in SSW 4.3 mph 6.0 mph 73 % 0.00 in
08:35 36.5 °F 28.7 °F 29.73 in SW 3.6 mph 8.1 mph 73 % 0.00 in
08:40 36.7 °F 28.5 °F 29.74 in SSW 2.5 mph 5.8 mph 72 % 0.00 in
08:45 36.8 °F 29.0 °F 29.74 in SW 5.2 mph 8.0 mph 73 % 0.00 in
08:50 37.0 °F 28.8 °F 29.74 in SSW 2.5 mph 5.8 mph 72 % 0.00 in
08:55 37.1 °F 28.9 °F 29.74 in SSW 3.4 mph 6.9 mph 72 % 0.00 in
09:00 37.3 °F 29.1 °F 29.74 in SSW 5.5 mph 8.1 mph 72 % 0.00 in
09:05 37.4 °F 28.9 °F 29.74 in SW 2.1 mph 6.9 mph 71 % 0.00 in
09:10 37.6 °F 29.0 °F 29.74 in SSW 3.6 mph 5.8 mph 71 % 0.00 in
09:15 37.7 °F 29.1 °F 29.74 in SW 3.1 mph 5.8 mph 71 % 0.00 in
09:20 37.9 °F 29.3 °F 29.74 in SSW 6.1 mph 6.9 mph 71 % 0.00 in
09:25 37.9 °F 29.0 °F 29.74 in SSW 2.2 mph 6.9 mph 70 % 0.00 in
09:31 38.0 °F 29.1 °F 29.74 in SSW 3.4 mph 8.1 mph 70 % 0.00 in
09:36 38.2 °F 29.3 °F 29.75 in SW 2.0 mph 9.0 mph 70 % 0.00 in
09:41 38.3 °F 29.4 °F 29.75 in SW 3.0 mph 8.0 mph 70 % 0.00 in
09:46 38.5 °F 29.2 °F 29.74 in SW 5.0 mph 7.0 mph 69 % 0.00 in
09:51 38.6 °F 29.3 °F 29.75 in SSW 2.0 mph 10.0 mph 69 % 0.00 in
09:56 38.7 °F 29.4 °F 29.74 in SSW 2.0 mph 7.0 mph 69 % 0.00 in
10:01 38.9 °F 29.6 °F 29.74 in South 4.4 mph 8.1 mph 69 % 0.00 in
10:06 39.2 °F 29.9 °F 29.74 in SSW 3.6 mph 9.2 mph 69 % 0.00 in
10:11 39.6 °F 30.3 °F 29.74 in SSW 5.3 mph 10.0 mph 69 % 0.00 in
10:16 40.0 °F 29.9 °F 29.74 in SSW 2.8 mph 6.9 mph 67 % 0.00 in
10:21 40.5 °F 30.4 °F 29.74 in South 3.9 mph 11.5 mph 67 % 0.00 in
10:26 40.9 °F 30.4 °F 29.75 in South 4.2 mph 6.9 mph 66 % 0.00 in
10:31 41.1 °F 30.6 °F 29.75 in SSW 1.9 mph 3.5 mph 66 % 0.00 in
10:36 41.3 °F 30.4 °F 29.74 in SSW 3.4 mph 4.6 mph 65 % 0.00 in
10:41 41.5 °F 30.2 °F 29.74 in SSW 5.1 mph 6.9 mph 64 % 0.00 in
10:46 41.6 °F 30.7 °F 29.74 in SSW 4.0 mph 5.0 mph 65 % 0.00 in
10:51 41.8 °F 30.9 °F 29.74 in SSW 1.5 mph 4.0 mph 65 % 0.00 in
10:56 41.9 °F 30.6 °F 29.74 in SSW 1.4 mph 6.0 mph 64 % 0.00 in
11:01 42.0 °F 30.7 °F 29.74 in SSW 2.1 mph 6.0 mph 64 % 0.00 in
11:06 42.1 °F 30.4 °F 29.74 in WSW 2.5 mph 3.5 mph 63 % 0.00 in
11:11 42.2 °F 30.5 °F 29.73 in SW 4.9 mph 5.8 mph 63 % 0.00 in
11:17 42.2 °F 30.5 °F 29.74 in SW 2.7 mph 4.0 mph 63 % 0.00 in
11:22 42.2 °F 30.5 °F 29.73 in South 2.6 mph 6.9 mph 63 % 0.00 in
11:27 42.2 °F 30.5 °F 29.73 in West 4.4 mph 8.1 mph 63 % 0.00 in
11:32 42.2 °F 30.1 °F 29.73 in SSW 2.4 mph 6.0 mph 62 % 0.00 in
11:37 42.3 °F 30.6 °F 29.72 in SW 5.2 mph 6.9 mph 63 % 0.00 in
11:42 42.3 °F 30.2 °F 29.72 in WSW 3.6 mph 6.9 mph 62 % 0.00 in
11:47 42.4 °F 30.7 °F 29.71 in South 1.8 mph 4.6 mph 63 % 0.00 in
11:52 42.5 °F 30.8 °F 29.70 in South 1.4 mph 5.0 mph 63 % 0.00 in
11:57 42.6 °F 30.9 °F 29.70 in SSW 1.5 mph 4.0 mph 63 % 0.00 in
12:02 42.5 °F 30.8 °F 29.70 in South 3.3 mph 4.6 mph 63 % 0.00 in
12:07 42.7 °F 31.4 °F 29.70 in SSW 3.4 mph 4.6 mph 64 % 0.00 in
12:12 42.7 °F 31.0 °F 29.69 in SSW 3.8 mph 8.1 mph 63 % 0.00 in
12:17 42.7 °F 30.6 °F 29.69 in SSE 2.1 mph 6.9 mph 62 % 0.00 in
12:22 42.6 °F 30.9 °F 29.69 in South 2.2 mph 5.8 mph 63 % 0.00 in
12:27 42.7 °F 31.0 °F 29.69 in SSW 2.8 mph 4.6 mph 63 % 0.00 in
12:32 42.7 °F 31.4 °F 29.70 in South 3.8 mph 6.9 mph 64 % 0.00 in
12:37 42.7 °F 31.0 °F 29.69 in SSW 1.5 mph 3.5 mph 63 % 0.00 in
12:42 42.7 °F 31.4 °F 29.70 in SW 1.5 mph 5.8 mph 64 % 0.00 in
12:48 42.7 °F 31.4 °F 29.69 in SSW 2.4 mph 4.6 mph 64 % 0.00 in
12:53 42.8 °F 31.5 °F 29.68 in SE 0.9 mph 5.8 mph 64 % 0.00 in
12:58 42.7 °F 31.0 °F 29.68 in South 2.2 mph 3.5 mph 63 % 0.00 in
13:03 42.8 °F 31.1 °F 29.68 in SSW 1.9 mph 4.6 mph 63 % 0.00 in
13:08 42.8 °F 31.5 °F 29.68 in WSW 3.3 mph 9.2 mph 64 % 0.00 in
13:13 42.8 °F 31.5 °F 29.68 in South 3.6 mph 4.6 mph 64 % 0.00 in
13:18 42.9 °F 31.9 °F 29.68 in South 0.5 mph 2.3 mph 65 % 0.00 in
13:23 42.9 °F 31.9 °F 29.68 in SW 3.2 mph 4.6 mph 65 % 0.00 in
13:28 42.9 °F 31.6 °F 29.68 in SSW 3.3 mph 5.0 mph 64 % 0.00 in
13:33 43.0 °F 31.6 °F 29.68 in South 0.8 mph 3.5 mph 64 % 0.00 in
13:38 43.1 °F 31.7 °F 29.67 in WSW 2.5 mph 3.5 mph 64 % 0.00 in
13:43 43.3 °F 32.3 °F 29.67 in SSW 3.4 mph 4.0 mph 65 % 0.00 in
13:48 43.3 °F 31.5 °F 29.67 in SSE 1.7 mph 3.5 mph 63 % 0.00 in
13:53 43.4 °F 32.0 °F 29.67 in South 2.5 mph 7.0 mph 64 % 0.00 in
13:58 43.4 °F 32.0 °F 29.67 in South 0.5 mph 2.3 mph 64 % 0.00 in
14:03 43.4 °F 32.4 °F 29.67 in South 1.0 mph 1.2 mph 65 % 0.00 in
14:08 43.3 °F 31.5 °F 29.67 in SW 1.4 mph 3.5 mph 63 % 0.00 in
14:14 43.3 °F 31.5 °F 29.67 in SSW 0.8 mph 2.3 mph 63 % 0.00 in
14:19 43.4 °F 31.6 °F 29.67 in SW 1.4 mph 6.9 mph 63 % 0.00 in
14:24 43.3 °F 31.5 °F 29.67 in South 3.2 mph 6.9 mph 63 % 0.00 in
14:29 43.1 °F 31.4 °F 29.67 in SSE 1.0 mph 3.5 mph 63 % 0.00 in
14:34 43.1 °F 31.7 °F 29.66 in SSW 3.5 mph 5.0 mph 64 % 0.00 in
14:39 43.1 °F 31.7 °F 29.66 in SW 1.6 mph 3.5 mph 64 % 0.00 in
14:44 43.1 °F 31.7 °F 29.66 in SSW 2.4 mph 3.5 mph 64 % 0.00 in
14:49 43.1 °F 31.7 °F 29.67 in South 2.2 mph 4.0 mph 64 % 0.00 in
14:54 43.1 °F 31.7 °F 29.67 in South 2.5 mph 3.5 mph 64 % 0.00 in
14:59 43.0 °F 31.6 °F 29.66 in SSW 2.4 mph 5.8 mph 64 % 0.00 in
15:04 42.8 °F 31.8 °F 29.66 in SSW 3.3 mph 4.6 mph 65 % 0.00 in
15:09 42.7 °F 31.7 °F 29.66 in SSW 3.4 mph 5.0 mph 65 % 0.00 in
15:14 42.6 °F 32.0 °F 29.66 in South 2.2 mph 3.5 mph 66 % 0.00 in
15:19 42.5 °F 32.3 °F 29.66 in South 1.6 mph 3.5 mph 67 % 0.00 in
15:24 42.4 °F 32.2 °F 29.66 in SSW 3.1 mph 3.5 mph 67 % 0.00 in
15:30 42.3 °F 32.1 °F 29.66 in SSW 2.3 mph 5.0 mph 67 % 0.00 in
15:35 42.2 °F 32.0 °F 29.66 in SSW 1.4 mph 5.8 mph 67 % 0.00 in
15:40 42.2 °F 32.4 °F 29.67 in SSW 0.4 mph 3.5 mph 68 % 0.00 in
15:45 42.1 °F 32.7 °F 29.67 in South 1.5 mph 6.9 mph 69 % 0.00 in
15:50 41.9 °F 32.8 °F 29.67 in South 0.6 mph 3.5 mph 70 % 0.00 in
15:55 41.9 °F 32.8 °F 29.67 in South 2.0 mph 5.8 mph 70 % 0.00 in
16:00 41.8 °F 32.7 °F 29.67 in SW 1.6 mph 3.5 mph 70 % 0.00 in
16:05 41.7 °F 32.6 °F 29.67 in South 1.4 mph 3.5 mph 70 % 0.00 in
16:10 41.6 °F 32.5 °F 29.66 in SSW 1.5 mph 6.0 mph 70 % 0.00 in
16:15 41.5 °F 32.4 °F 29.67 in South 3.5 mph 4.6 mph 70 % 0.00 in
16:20 41.4 °F 32.3 °F 29.67 in SSW 1.1 mph 3.5 mph 70 % 0.00 in
16:25 41.4 °F 32.3 °F 29.67 in SSW 1.3 mph 3.5 mph 70 % 0.00 in
16:30 41.3 °F 32.2 °F 29.67 in SSW 1.6 mph 4.0 mph 70 % 0.00 in
16:36 41.2 °F 32.2 °F 29.67 in Calm     70 % 0.00 in
16:41 41.1 °F 32.4 °F 29.67 in South 1.0 mph 5.0 mph 71 % 0.00 in
16:46 41.0 °F 32.3 °F 29.67 in South 1.0 mph 7.0 mph 71 % 0.00 in
16:51 40.9 °F 32.6 °F 29.66 in South 2.9 mph 4.6 mph 72 % 0.00 in
16:56 40.8 °F 32.5 °F 29.67 in South 1.2 mph 3.5 mph 72 % 0.00 in
17:01 40.7 °F 32.7 °F 29.67 in SSW 0.8 mph 3.5 mph 73 % 0.00 in
17:06 40.6 °F 32.6 °F 29.67 in SW 1.5 mph 3.5 mph 73 % 0.00 in
17:11 40.6 °F 32.6 °F 29.67 in SW 0.9 mph 3.5 mph 73 % 0.00 in
17:16 40.5 °F 32.5 °F 29.67 in WSW 0.9 mph 3.5 mph 73 % 0.00 in
17:21 40.5 °F 32.5 °F 29.66 in WSW 0.1 mph 1.2 mph 73 % 0.00 in
17:26 40.4 °F 32.4 °F 29.67 in SW 0.5 mph 1.0 mph 73 % 0.00 in
17:31 40.4 °F 32.4 °F 29.67 in South 0.2 mph 1.2 mph 73 % 0.00 in
17:36 40.4 °F 32.8 °F 29.67 in South 0.3 mph 2.0 mph 74 % 0.00 in
17:41 40.3 °F 32.7 °F 29.67 in South 0.2 mph 1.2 mph 74 % 0.00 in
17:46 40.3 °F 33.0 °F 29.67 in South 1.2 mph 3.5 mph 75 % 0.00 in
17:51 40.2 °F 33.2 °F 29.67 in SSW 0.2 mph 3.5 mph 76 % 0.00 in
17:56 40.2 °F 33.2 °F 29.67 in Calm     76 % 0.00 in
18:01 40.1 °F 33.5 °F 29.67 in SW 0.1 mph 2.3 mph 77 % 0.00 in
18:06 40.1 °F 33.5 °F 29.67 in Calm     77 % 0.00 in
18:11 40.1 °F 33.5 °F 29.67 in Calm     77 % 0.00 in
18:17 40.1 °F 33.8 °F 29.68 in SW 0.5 mph 1.0 mph 78 % 0.00 in
18:22 40.0 °F 33.7 °F 29.68 in Calm   2.3 mph 78 % 0.00 in
18:27 40.0 °F 33.7 °F 29.68 in SW 0.6 mph   78 % 0.00 in
18:32 40.0 °F 34.0 °F 29.67 in Calm     79 % 0.00 in
18:37 40.0 °F 34.0 °F 29.67 in Calm     79 % 0.00 in
18:42 40.0 °F 34.3 °F 29.67 in Calm     80 % 0.00 in
18:47 40.0 °F 34.3 °F 29.67 in Calm     80 % 0.00 in
18:52 39.9 °F 34.2 °F 29.67 in Calm     80 % 0.00 in
18:57 39.9 °F 34.2 °F 29.67 in Calm     80 % 0.00 in
19:02 39.8 °F 34.1 °F 29.67 in Calm     80 % 0.00 in
19:07 39.8 °F 34.1 °F 29.67 in Calm     80 % 0.00 in
19:12 39.8 °F 34.8 °F 29.67 in Calm     82 % 0.00 in
19:17 39.7 °F 35.0 °F 29.66 in Calm     83 % 0.00 in
19:22 39.7 °F 34.7 °F 29.66 in Calm     82 % 0.00 in
19:27 39.6 °F 34.6 °F 29.67 in Calm     82 % 0.00 in
19:32 39.6 °F 34.9 °F 29.67 in Calm     83 % 0.00 in
19:37 39.6 °F 35.2 °F 29.67 in Calm     84 % 0.00 in
19:42 39.5 °F 35.1 °F 29.68 in Calm     84 % 0.00 in
19:48 39.5 °F 35.1 °F 29.67 in Calm     84 % 0.00 in
19:53 39.4 °F 35.0 °F 29.67 in Calm     84 % 0.00 in
19:58 39.4 °F 35.0 °F 29.67 in Calm     84 % 0.00 in
20:03 39.3 °F 35.2 °F 29.67 in Calm     85 % 0.00 in
20:08 39.3 °F 35.5 °F 29.67 in Calm     86 % 0.00 in
20:13 39.3 °F 35.8 °F 29.67 in Calm     87 % 0.00 in
20:18 39.2 °F 35.7 °F 29.67 in Calm     87 % 0.00 in
20:23 39.2 °F 35.7 °F 29.66 in Calm     87 % 0.00 in
20:28 39.1 °F 35.6 °F 29.67 in Calm     87 % 0.00 in
20:33 39.1 °F 35.6 °F 29.66 in Calm     87 % 0.00 in
20:38 39.0 °F 35.5 °F 29.65 in Calm     87 % 0.00 in
20:43 38.9 °F 35.4 °F 29.65 in Calm     87 % 0.00 in
20:48 38.9 °F 35.4 °F 29.65 in Calm     87 % 0.00 in
20:53 38.8 °F 35.3 °F 29.64 in Calm     87 % 0.00 in
20:58 38.6 °F 35.1 °F 29.64 in Calm     87 % 0.00 in
21:03 38.5 °F 35.0 °F 29.64 in Calm     87 % 0.00 in
21:08 38.4 °F 34.9 °F 29.64 in Calm     87 % 0.00 in
21:13 38.3 °F 34.8 °F 29.64 in Calm     87 % 0.00 in
21:18 38.3 °F 34.8 °F 29.64 in Calm     87 % 0.00 in
21:24 38.2 °F 34.7 °F 29.63 in Calm     87 % 0.00 in
21:29 38.2 °F 34.7 °F 29.62 in Calm     87 % 0.00 in
21:34 38.1 °F 34.6 °F 29.61 in Calm     87 % 0.00 in
21:39 38.0 °F 34.5 °F 29.61 in Calm     87 % 0.00 in
21:44 38.0 °F 34.8 °F 29.61 in Calm     88 % 0.00 in
21:49 38.0 °F 34.8 °F 29.61 in Calm     88 % 0.00 in
21:54 38.0 °F 35.0 °F 29.61 in Calm     89 % 0.00 in
21:59 38.0 °F 35.0 °F 29.61 in Calm     89 % 0.00 in
22:04 38.0 °F 35.0 °F 29.61 in Calm     89 % 0.00 in
22:09 38.0 °F 35.3 °F 29.61 in Calm     90 % 0.00 in
22:14 38.0 °F 35.3 °F 29.60 in Calm     90 % 0.00 in
22:19 38.0 °F 35.3 °F 29.59 in Calm     90 % 0.00 in
22:24 38.0 °F 35.3 °F 29.59 in Calm     90 % 0.00 in
22:29 38.0 °F 35.3 °F 29.59 in Calm     90 % 0.00 in
22:34 38.0 °F 35.3 °F 29.59 in Calm     90 % 0.00 in
22:39 38.0 °F 35.3 °F 29.59 in Calm     90 % 0.00 in
22:44 37.9 °F 35.2 °F 29.59 in Calm     90 % 0.00 in
22:49 37.9 °F 35.2 °F 29.60 in Calm     90 % 0.00 in
22:54 37.9 °F 35.2 °F 29.59 in Calm     90 % 0.00 in
22:59 37.9 °F 35.2 °F 29.59 in Calm     90 % 0.00 in
23:05 37.8 °F 35.1 °F 29.60 in Calm     90 % 0.00 in
23:10 37.9 °F 35.5 °F 29.59 in Calm     91 % 0.00 in
23:15 37.8 °F 35.4 °F 29.59 in Calm     91 % 0.00 in
23:20 37.9 °F 35.5 °F 29.59 in Calm   1.2 mph 91 % 0.00 in
23:25 37.9 °F 35.8 °F 29.59 in WSW 1.5 mph 2.3 mph 92 % 0.00 in
23:30 37.9 °F 35.8 °F 29.59 in Calm     92 % 0.00 in
23:35 37.9 °F 35.8 °F 29.59 in NNW 0.6 mph 3.0 mph 92 % 0.00 in
23:40 37.9 °F 36.1 °F 29.60 in NNW 2.5 mph 3.5 mph 93 % 0.00 in
23:45 37.7 °F 35.6 °F 29.59 in NNW 1.8 mph 3.5 mph 92 % 0.00 in
23:50 37.5 °F 35.4 °F 29.59 in NNW 1.1 mph 2.3 mph 92 % 0.00 in
23:55 37.4 °F 35.3 °F 29.59 in North 0.3 mph 3.5 mph 92 % 0.00 in
Crab Meadow Weather
Compliments of Weather Underground - 3 mb

Script developed by  Jim McMurry - jmcmurry@mwt.net Adapted for the template by  Wim van der Kuil - Leuven-Template.eu

Weather Terms: Freeze Warning - Widespread temperatures at or below 32°F during the growing season. A freeze may occur with or without frost. A hard freeze occurs with temperatures below 28°F. Growing season is based on the average date of first and last freeze at O'Hare. It begins April 17 and ends October 27.